[{"OBJECT_NAME":"ONEWEB-0264","OBJECT_ID":"2021-060R","EPOCH":"2026-09-12T06:38:37.178016","MEAN_MOTION":13.16592955,"ECCENTRICITY":0.00022443,"INCLINATION":87.9136,"RA_OF_ASC_NODE":211.4868,"ARG_OF_PERICENTER":77.7006,"MEAN_ANOMALY":282.4376,"EPHEMERIS_TYPE":0,"CLASSIFICATION_TYPE":"U","NORAD_CAT_ID":48982,"ELEMENT_SET_NO":999,"REV_AT_EPOCH":25105,"BSTAR":0.000011707508,"MEAN_MOTION_DOT":1.7e-7,"MEAN_MOTION_DDOT":0},{"OBJECT_NAME":"ONEWEB-0266","OBJECT_ID":"2021-060T","EPOCH":"2026-09-12T07:09:23.348160","MEAN_MOTION":13.16594701,"ECCENTRICITY":0.000203,"INCLINATION":87.9142,"RA_OF_ASC_NODE":211.478,"ARG_OF_PERICENTER":79.9478,"MEAN_ANOMALY":280.1882,"EPHEMERIS_TYPE":0,"CLASSIFICATION_TYPE":"U","NORAD_CAT_ID":48984,"ELEMENT_SET_NO":999,"REV_AT_EPOCH":25104,"BSTAR":-0.0011432506,"MEAN_MOTION_DOT":-0.00000424,"MEAN_MOTION_DDOT":0},{"OBJECT_NAME":"ONEWEB-0267","OBJECT_ID":"2021-060U","EPOCH":"2026-09-11T20:28:44.599008","MEAN_MOTION":13.1659297,"ECCENTRICITY":0.00021758,"INCLINATION":87.914,"RA_OF_ASC_NODE":211.5629,"ARG_OF_PERICENTER":76.278,"MEAN_ANOMALY":283.8593,"EPHEMERIS_TYPE":0,"CLASSIFICATION_TYPE":"U","NORAD_CAT_ID":48985,"ELEMENT_SET_NO":999,"REV_AT_EPOCH":25099,"BSTAR":0.000031623484,"MEAN_MOTION_DOT":2.5e-7,"MEAN_MOTION_DDOT":0},{"OBJECT_NAME":"ONEWEB-0268","OBJECT_ID":"2021-060V","EPOCH":"2026-09-12T06:39:45.751104","MEAN_MOTION":13.16593873,"ECCENTRICITY":0.0002107,"INCLINATION":87.9142,"RA_OF_ASC_NODE":211.4873,"ARG_OF_PERICENTER":82.252,"MEAN_ANOMALY":277.885,"EPHEMERIS_TYPE":0,"CLASSIFICATION_TYPE":"U","NORAD_CAT_ID":48986,"ELEMENT_SET_NO":999,"REV_AT_EPOCH":25131,"BSTAR":-0.000064012004,"MEAN_MOTION_DOT":-1.2e-7,"MEAN_MOTION_DDOT":0},{"OBJECT_NAME":"ONEWEB-0269","OBJECT_ID":"2021-060W","EPOCH":"2026-09-12T04:22:58.698048","MEAN_MOTION":13.16594775,"ECCENTRICITY":0.00019622,"INCLINATION":87.9138,"RA_OF_ASC_NODE":211.504,"ARG_OF_PERICENTER":87.2672,"MEAN_ANOMALY":272.8683,"EPHEMERIS_TYPE":0,"CLASSIFICATION_TYPE":"U","NORAD_CAT_ID":48987,"ELEMENT_SET_NO":999,"REV_AT_EPOCH":25107,"BSTAR":0.00010217161,"MEAN_MOTION_DOT":5.2e-7,"MEAN_MOTION_DDOT":0},{"OBJECT_NAME":"ONEWEB-0270","OBJECT_ID":"2021-060X","EPOCH":"2026-09-12T06:37:29.012736","MEAN_MOTION":13.16593208,"ECCENTRICITY":0.00020428,"INCLINATION":87.9133,"RA_OF_ASC_NODE":211.4874,"ARG_OF_PERICENTER":69.3984,"MEAN_ANOMALY":290.7365,"EPHEMERIS_TYPE":0,"CLASSIFICATION_TYPE":"U","NORAD_CAT_ID":48988,"ELEMENT_SET_NO":999,"REV_AT_EPOCH":25112,"BSTAR":-0.000062847876,"MEAN_MOTION_DOT":-1.1e-7,"MEAN_MOTION_DDOT":0},{"OBJECT_NAME":"ONEWEB-0271","OBJECT_ID":"2021-060Y","EPOCH":"2026-09-12T02:40:22.698912","MEAN_MOTION":13.16593698,"ECCENTRICITY":0.00021447,"INCLINATION":87.914,"RA_OF_ASC_NODE":211.5114,"ARG_OF_PERICENTER":72.8835,"MEAN_ANOMALY":287.253,"EPHEMERIS_TYPE":0,"CLASSIFICATION_TYPE":"U","NORAD_CAT_ID":48989,"ELEMENT_SET_NO":999,"REV_AT_EPOCH":25110,"BSTAR":0.00015839796,"MEAN_MOTION_DOT":7.3e-7,"MEAN_MOTION_DDOT":0},{"OBJECT_NAME":"ONEWEB-0272","OBJECT_ID":"2021-060Z","EPOCH":"2026-09-11T21:43:57.723744","MEAN_MOTION":13.16592923,"ECCENTRICITY":0.00023207,"INCLINATION":87.9133,"RA_OF_ASC_NODE":211.5602,"ARG_OF_PERICENTER":82.6524,"MEAN_ANOMALY":277.4871,"EPHEMERIS_TYPE":0,"CLASSIFICATION_TYPE":"U","NORAD_CAT_ID":48990,"ELEMENT_SET_NO":999,"REV_AT_EPOCH":25102,"BSTAR":-0.000063208677,"MEAN_MOTION_DOT":-1.1e-7,"MEAN_MOTION_DDOT":0},{"OBJECT_NAME":"ONEWEB-0273","OBJECT_ID":"2021-060AA","EPOCH":"2026-09-12T07:23:05.317152","MEAN_MOTION":13.16591838,"ECCENTRICITY":0.00020777,"INCLINATION":87.9129,"RA_OF_ASC_NODE":211.4821,"ARG_OF_PERICENTER":74.9061,"MEAN_ANOMALY":285.2299,"EPHEMERIS_TYPE":0,"CLASSIFICATION_TYPE":"U","NORAD_CAT_ID":48991,"ELEMENT_SET_NO":999,"REV_AT_EPOCH":25105,"BSTAR":-0.00013093379,"MEAN_MOTION_DOT":-3.7e-7,"MEAN_MOTION_DDOT":0},{"OBJECT_NAME":"ONEWEB-0274","OBJECT_ID":"2021-060AB","EPOCH":"2026-09-11T22:52:23.208960","MEAN_MOTION":13.16594546,"ECCENTRICITY":0.00023331,"INCLINATION":87.9133,"RA_OF_ASC_NODE":211.55,"ARG_OF_PERICENTER":82.5801,"MEAN_ANOMALY":277.5595,"EPHEMERIS_TYPE":0,"CLASSIFICATION_TYPE":"U","NORAD_CAT_ID":48992,"ELEMENT_SET_NO":999,"REV_AT_EPOCH":25104,"BSTAR":0.00018009559,"MEAN_MOTION_DOT":8.2e-7,"MEAN_MOTION_DDOT":0},{"OBJECT_NAME":"ONEWEB-0275","OBJECT_ID":"2021-060AC","EPOCH":"2026-09-12T04:04:44.362560","MEAN_MOTION":13.16595232,"ECCENTRICITY":0.00027867,"INCLINATION":87.914,"RA_OF_ASC_NODE":211.5041,"ARG_OF_PERICENTER":91.1368,"MEAN_ANOMALY":269.0082,"EPHEMERIS_TYPE":0,"CLASSIFICATION_TYPE":"U","NORAD_CAT_ID":48993,"ELEMENT_SET_NO":999,"REV_AT_EPOCH":25100,"BSTAR":0.00025609825,"MEAN_MOTION_DOT":0.00000111,"MEAN_MOTION_DDOT":0},{"OBJECT_NAME":"ONEWEB-0276","OBJECT_ID":"2021-060AD","EPOCH":"2026-09-12T06:42:02.241504","MEAN_MOTION":13.16592956,"ECCENTRICITY":0.0002212,"INCLINATION":87.9143,"RA_OF_ASC_NODE":211.481,"ARG_OF_PERICENTER":80.5582,"MEAN_ANOMALY":279.5799,"EPHEMERIS_TYPE":0,"CLASSIFICATION_TYPE":"U","NORAD_CAT_ID":48994,"ELEMENT_SET_NO":999,"REV_AT_EPOCH":25103,"BSTAR":-0.00012072119,"MEAN_MOTION_DOT":-3.3e-7,"MEAN_MOTION_DDOT":0},{"OBJECT_NAME":"ONEWEB-0277","OBJECT_ID":"2021-060AE","EPOCH":"2026-09-12T07:00:16.941600","MEAN_MOTION":13.16595131,"ECCENTRICITY":0.00020937,"INCLINATION":87.9137,"RA_OF_ASC_NODE":211.4828,"ARG_OF_PERICENTER":75.3934,"MEAN_ANOMALY":284.7429,"EPHEMERIS_TYPE":0,"CLASSIFICATION_TYPE":"U","NORAD_CAT_ID":48995,"ELEMENT_SET_NO":999,"REV_AT_EPOCH":25102,"BSTAR":-0.00013423922,"MEAN_MOTION_DOT":-3.8e-7,"MEAN_MOTION_DDOT":0},{"OBJECT_NAME":"ONEWEB-0278","OBJECT_ID":"2021-060AF","EPOCH":"2026-09-12T03:07:43.233600","MEAN_MOTION":13.16593851,"ECCENTRICITY":0.00018518,"INCLINATION":87.914,"RA_OF_ASC_NODE":211.5097,"ARG_OF_PERICENTER":80.8795,"MEAN_ANOMALY":279.2546,"EPHEMERIS_TYPE":0,"CLASSIFICATION_TYPE":"U","NORAD_CAT_ID":48996,"ELEMENT_SET_NO":999,"REV_AT_EPOCH":25113,"BSTAR":-0.00011545828,"MEAN_MOTION_DOT":-3.1e-7,"MEAN_MOTION_DDOT":0},{"OBJECT_NAME":"ONEWEB-0279","OBJECT_ID":"2021-060AG","EPOCH":"2026-09-12T06:57:59.622624","MEAN_MOTION":13.16592819,"ECCENTRICITY":0.00022601,"INCLINATION":87.9143,"RA_OF_ASC_NODE":211.4771,"ARG_OF_PERICENTER":75.6842,"MEAN_ANOMALY":284.4539,"EPHEMERIS_TYPE":0,"CLASSIFICATION_TYPE":"U","NORAD_CAT_ID":48997,"ELEMENT_SET_NO":999,"REV_AT_EPOCH":25108,"BSTAR":-0.00017599874,"MEAN_MOTION_DOT":-5.4e-7,"MEAN_MOTION_DDOT":0},{"OBJECT_NAME":"ONEWEB-0280","OBJECT_ID":"2021-060AH","EPOCH":"2026-09-12T07:19:40.340064","MEAN_MOTION":13.16594033,"ECCENTRICITY":0.00018085,"INCLINATION":87.914,"RA_OF_ASC_NODE":211.4776,"ARG_OF_PERICENTER":72.2604,"MEAN_ANOMALY":287.8724,"EPHEMERIS_TYPE":0,"CLASSIFICATION_TYPE":"U","NORAD_CAT_ID":48998,"ELEMENT_SET_NO":999,"REV_AT_EPOCH":25102,"BSTAR":0.000028914183,"MEAN_MOTION_DOT":2.4e-7,"MEAN_MOTION_DDOT":0},{"OBJECT_NAME":"ONEWEB-0281","OBJECT_ID":"2021-060AJ","EPOCH":"2026-09-12T07:27:37.731168","MEAN_MOTION":13.16592788,"ECCENTRICITY":0.00021284,"INCLINATION":87.914,"RA_OF_ASC_NODE":211.4733,"ARG_OF_PERICENTER":83.1832,"MEAN_ANOMALY":276.9541,"EPHEMERIS_TYPE":0,"CLASSIFICATION_TYPE":"U","NORAD_CAT_ID":48999,"ELEMENT_SET_NO":999,"REV_AT_EPOCH":25109,"BSTAR":0.000029253015,"MEAN_MOTION_DOT":2.4e-7,"MEAN_MOTION_DDOT":0},{"OBJECT_NAME":"ONEWEB-0282","OBJECT_ID":"2021-060AK","EPOCH":"2026-09-11T21:14:21.322464","MEAN_MOTION":13.16594869,"ECCENTRICITY":0.00020154,"INCLINATION":87.9142,"RA_OF_ASC_NODE":211.5632,"ARG_OF_PERICENTER":75.1274,"MEAN_ANOMALY":285.008,"EPHEMERIS_TYPE":0,"CLASSIFICATION_TYPE":"U","NORAD_CAT_ID":49000,"ELEMENT_SET_NO":999,"REV_AT_EPOCH":25101,"BSTAR":0.00017492438,"MEAN_MOTION_DOT":8e-7,"MEAN_MOTION_DDOT":0},{"OBJECT_NAME":"ONEWEB-0283","OBJECT_ID":"2021-060AL","EPOCH":"2026-09-11T22:47:48.931296","MEAN_MOTION":13.16593316,"ECCENTRICITY":0.00021571,"INCLINATION":87.9141,"RA_OF_ASC_NODE":211.5497,"ARG_OF_PERICENTER":76.3682,"MEAN_ANOMALY":283.7689,"EPHEMERIS_TYPE":0,"CLASSIFICATION_TYPE":"U","NORAD_CAT_ID":49001,"ELEMENT_SET_NO":999,"REV_AT_EPOCH":25103,"BSTAR":0.00014999044,"MEAN_MOTION_DOT":7e-7,"MEAN_MOTION_DDOT":0},{"OBJECT_NAME":"ONEWEB-0284","OBJECT_ID":"2021-060AM","EPOCH":"2026-09-11T22:38:41.696160","MEAN_MOTION":13.16593978,"ECCENTRICITY":0.00017444,"INCLINATION":87.9139,"RA_OF_ASC_NODE":211.5461,"ARG_OF_PERICENTER":75.468,"MEAN_ANOMALY":284.6644,"EPHEMERIS_TYPE":0,"CLASSIFICATION_TYPE":"U","NORAD_CAT_ID":49002,"ELEMENT_SET_NO":999,"REV_AT_EPOCH":25101,"BSTAR":0.00014291692,"MEAN_MOTION_DOT":6.7e-7,"MEAN_MOTION_DDOT":0},{"OBJECT_NAME":"ONEWEB-0285","OBJECT_ID":"2021-075A","EPOCH":"2026-09-12T04:47:04.233120","MEAN_MOTION":13.12444769,"ECCENTRICITY":0.00018862,"INCLINATION":87.8989,"RA_OF_ASC_NODE":333.3891,"ARG_OF_PERICENTER":107.1296,"MEAN_ANOMALY":253.0039,"EPHEMERIS_TYPE":0,"CLASSIFICATION_TYPE":"U","NORAD_CAT_ID":49075,"ELEMENT_SET_NO":999,"REV_AT_EPOCH":24662,"BSTAR":0.0009225649,"MEAN_MOTION_DOT":0.00000345,"MEAN_MOTION_DDOT":0},{"OBJECT_NAME":"ONEWEB-0286","OBJECT_ID":"2021-075B","EPOCH":"2026-09-12T04:21:14.665536","MEAN_MOTION":13.12442476,"ECCENTRICITY":0.00019607,"INCLINATION":87.8986,"RA_OF_ASC_NODE":333.4016,"ARG_OF_PERICENTER":105.8137,"MEAN_ANOMALY":254.3207,"EPHEMERIS_TYPE":0,"CLASSIFICATION_TYPE":"U","NORAD_CAT_ID":49076,"ELEMENT_SET_NO":999,"REV_AT_EPOCH":24597,"BSTAR":-0.00062051212,"MEAN_MOTION_DOT":-0.00000211,"MEAN_MOTION_DDOT":0},{"OBJECT_NAME":"ONEWEB-0287","OBJECT_ID":"2021-075C","EPOCH":"2026-09-11T23:04:51.497760","MEAN_MOTION":13.1764905,"ECCENTRICITY":0.00018992,"INCLINATION":87.9205,"RA_OF_ASC_NODE":348.6313,"ARG_OF_PERICENTER":113.3183,"MEAN_ANOMALY":246.8149,"EPHEMERIS_TYPE":0,"CLASSIFICATION_TYPE":"U","NORAD_CAT_ID":49077,"ELEMENT_SET_NO":999,"REV_AT_EPOCH":24505,"BSTAR":-0.000097897376,"MEAN_MOTION_DOT":-2.5e-7,"MEAN_MOTION_DDOT":0}]